This demonstration page uses our WeatherBlox Daily Observations layout. Learn more.

Hourly Observations for September 18, 2019

Temp ( °F °C ) Dew Point ( °F °C ) Humidity (%) Winds ( mph kmh ) Pressure ( in mb ) Visibility ( mi km ) Precip ( " mm )
12:16 am 00:16 Clear 63 17 63 17 100 100 Calm 30.12 1020 10 16.09344 N/A
12:35 am 00:35 Clear 63 17 63 17 100 100 Calm 30.12 1020 10 16.09344 N/A
12:56 am 00:56 Clear 63 17 63 17 100 100 Calm 30.12 1020 10 16.09344 N/A
1:15 am 01:15 Clear 63 17 63 17 100 100 Calm 30.12 1020 10 16.09344 N/A
1:35 am 01:35 Clear 63 17 63 17 100 100 Calm 30.12 1020 10 16.09344 N/A
1:55 am 01:55 Clear 61 16 61 16 100 100 Calm 30.15 1021 10 16.09344 N/A
2:15 am 02:15 Clear 61 16 61 16 100 100 Calm 30.15 1021 10 16.09344 N/A
2:35 am 02:35 Clear 61 16 61 16 100 100 Calm 30.15 1021 10 16.09344 N/A
2:56 am 02:56 Clear 59 15 59 15 100 100 Calm 30.15 1021 7 11.265408 N/A
3:16 am 03:16 Clear 57 14 57 14 100 100 Calm 30.12 1020 7 11.265408 N/A
3:36 am 03:36 Clear 57 14 57 14 100 100 Calm 30.12 1020 10 16.09344 N/A
3:56 am 03:56 Clear 55 13 55 13 100 100 Calm 30.12 1020 7 11.265408 N/A
9:56 am 09:56 Sunny 68 20 64 18 88 88 Calm 30.15 1021 10 16.09344 N/A
10:15 am 10:15 Sunny 70 21 64 18 83 83 Calm 30.15 1021 10 16.09344 N/A
10:36 am 10:36 Sunny 72 22 64 18 78 78 Calm 30.09 1019 10 16.09344 N/A
10:56 am 10:56 undefined N/A N/A N/A Calm N/A N/A N/A
11:15 am 11:15 Sunny 75 24 66 19 74 74 undefined N/A 30.09 1019 10 16.09344 N/A
11:35 am 11:35 Sunny 77 25 66 19 69 69 Calm 30.12 1020 10 16.09344 N/A
11:55 am 11:55 Sunny 79 26 66 19 65 65 Calm 30.12 1020 10 16.09344 N/A
12:15 pm 12:15 Sunny 81 27 64 18 58 58 ESE 5 7 30.12 1020 10 16.09344 N/A
12:35 pm 12:35 Sunny 81 27 64 18 58 58 E 9 15 30.12 1020 10 16.09344 N/A
12:55 pm 12:55 Sunny 81 27 64 18 58 58 ESE 5 7 30.12 1020 10 16.09344 N/A
1:15 pm 13:15 Sunny 81 27 64 18 58 58 E 7 11 30.12 1020 10 16.09344 N/A
1:35 pm 13:35 Sunny 82 28 64 18 55 55 ESE 6 9 30.12 1020 10 16.09344 N/A
1:55 pm 13:55 Sunny 82 28 63 17 51 51 ESE 6 9 30.12 1020 10 16.09344 N/A
2:15 pm 14:15 Sunny 82 28 64 18 55 55 Calm 30.12 1020 10 16.09344 N/A
2:36 pm 14:36 Sunny 84 29 63 17 48 48 ENE 5 7 30.09 1019 10 16.09344 N/A
2:55 pm 14:55 Sunny 84 29 63 17 48 48 E 5 7 30.09 1019 10 16.09344 N/A
3:15 pm 15:15 Sunny 82 28 63 17 51 51 NE 6 9 30.09 1019 10 16.09344 N/A
3:36 pm 15:36 Sunny 84 29 64 18 51 51 E 7 11 30.09 1019 10 16.09344 N/A
3:55 pm 15:55 Sunny 86 30 64 18 49 49 ENE 8 13 30.09 1019 10 16.09344 N/A
4:15 pm 16:15 Sunny 86 30 63 17 46 46 NE 12 19 30.06 1018 10 16.09344 N/A
4:36 pm 16:36 Sunny 84 29 63 17 48 48 ENE 9 15 30.06 1018 10 16.09344 N/A
4:56 pm 16:56 Sunny 84 29 63 17 48 48 ENE 8 13 30.06 1018 10 16.09344 N/A
5:15 pm 17:15 Sunny 84 29 63 17 48 48 E 8 13 30.06 1018 10 16.09344 N/A
5:36 pm 17:36 Sunny 84 29 63 17 48 48 E 6 9 30.06 1018 10 16.09344 N/A
5:55 pm 17:55 Sunny 84 29 63 17 48 48 E 7 11 30.06 1018 10 16.09344 N/A
6:15 pm 18:15 Sunny 84 29 61 16 45 45 E 5 7 30.06 1018 10 16.09344 N/A
6:35 pm 18:35 Sunny 82 28 61 16 48 48 ESE 6 9 30.06 1018 10 16.09344 N/A
6:56 pm 18:56 Sunny 81 27 63 17 54 54 E 5 7 30.06 1018 10 16.09344 N/A
7:16 pm 19:16 Sunny 79 26 64 18 61 61 Calm 30.06 1018 10 16.09344 N/A
7:35 pm 19:35 Sunny 73 23 64 18 74 74 ENE 3 6 30.06 1018 10 16.09344 N/A
7:55 pm 19:55 Clear 72 22 64 18 78 78 ENE 3 6 30.06 1018 10 16.09344 N/A
8:15 pm 20:15 Clear 68 20 63 17 83 83 Calm 30.09 1019 10 16.09344 N/A
8:36 pm 20:36 Clear 64 18 63 17 94 94 ENE 3 6 30.09 1019 10 16.09344 N/A
8:55 pm 20:55 Clear 64 18 63 17 94 94 Calm 30.09 1019 10 16.09344 N/A
9:15 pm 21:15 Clear 63 17 61 16 94 94 Calm 30.09 1019 10 16.09344 N/A
9:35 pm 21:35 Clear 64 18 61 16 88 88 Calm 30.09 1019 10 16.09344 N/A
9:56 pm 21:56 Clear 61 16 61 16 100 100 ENE 3 6 30.12 1020 10 16.09344 N/A
10:16 pm 22:16 Clear 61 16 61 16 100 100 ENE 5 7 30.12 1020 10 16.09344 N/A
10:36 pm 22:36 Clear 63 17 61 16 94 94 E 6 9 30.12 1020 10 16.09344 N/A
10:55 pm 22:55 Clear 63 17 61 16 94 94 ENE 5 7 30.12 1020 10 16.09344 N/A
11:16 pm 23:16 Clear 61 16 61 16 100 100 E 7 11 30.12 1020 10 16.09344 N/A
11:35 pm 23:35 Clear 63 17 61 16 94 94 E 7 11 30.12 1020 10 16.09344 N/A
11:55 pm 23:55 Clear 59 15 59 15 100 100 E 6 9 30.09 1019 10 16.09344 N/A

Powered by AerisWeather